Location: Dobrzeń Wielki
(50.7693°N, 17.8414°E)
Time: 11:57:02
(UTC+01:00)

ISS - Visible Passes

Search period start: 20 March 2019 00:00
Search period end: 30 March 2019 00:00
Orbit: 406 x 411 km, 51.6° (Epoch: 20 March)

Date Brightness Start Highest point End Pass type
(mag) Time Alt. Az. Time Alt. Az. Time Alt. Az.
22 Mar -2.5 19:38:33 10° SSW 19:40:47 24° SSE 19:40:47 24° SSE visible
23 Mar -2.0 18:48:16 10° S 18:50:30 17° SE 18:52:28 11° ESE visible
23 Mar -2.4 20:23:21 10° WSW 20:25:14 31° SW 20:25:14 31° SW visible
24 Mar -3.5 19:32:28 10° SW 19:35:38 45° SSE 19:36:43 32° ESE visible
24 Mar -0.9 21:08:49 10° W 21:09:28 15° W 21:09:28 15° W visible
25 Mar -2.8 18:41:43 10° SSW 18:44:41 31° SSE 18:47:40 10° E visible
25 Mar -3.7 20:17:44 10° WSW 20:20:47 74° W 20:20:47 74° W visible
26 Mar -3.9 19:26:41 10° WSW 19:29:59 74° SSE 19:31:58 22° E visible
26 Mar -1.5 21:03:17 10° W 21:04:43 23° W 21:04:43 23° W visible
27 Mar -3.8 20:12:11 10° W 20:15:29 75° N 20:15:48 66° NE visible
28 Mar -3.8 19:21:03 10° W 19:24:22 82° N 19:26:49 17° ENE visible
28 Mar -2.0 20:57:42 10° WNW 20:59:33 31° WNW 20:59:33 31° WNW visible
29 Mar -3.8 20:06:34 10° W 20:09:53 76° N 20:10:30 54° ENE visible
29 Mar -0.5 21:43:11 10° W 21:43:14 10° W 21:43:14 10° W visible
